Weather History for KJQF - October, 2013

Change the Weather History Date:

Monday, October 7, 2013

  Actual Average (KCLT) Record (KCLT)
Temperature  
Mean Temperature 70 °F 63 °F  
Max Temperature 77 °F 74 °F 91 °F (1951)
Min Temperature 64 °F 52 °F 34 °F (1935)
Degree Days  
Heating Degree Days 0 4  
Month to date heating degree days 22  
Since 1 July heating degree days 45  
Cooling Degree Days 6 2  
Month to date cooling degree days 17  
Year to date cooling degree days 1492  
Growing Degree Days 20 (Base 50)    
Moisture  
Dew Point 64 °F    
Average Humidity 82    
Maximum Humidity 94    
Minimum Humidity 59    
Precipitation  
Precipitation 0.02 in 0.11 in 2.70 in (1949)
Month to date precipitation 0.82  
Year to date precipitation 32.66  
Snow  
Snow 0.00 in 0.00 in 0.00 in ()
Month to date snowfall 0.0  
Since 1 July snowfall 0.0  
Since 1 September snowfall 0.0  
Snow Depth -    
Sea Level Pressure  
Sea Level Pressure 29.93 in    
Wind  
Wind Speed 5 mph (SE)    
Max Wind Speed 12 mph    
Max Gust Speed 20 mph    
Visibility 9 miles    
Events Rain , Thunderstorm    
T = Trace of Precipitation, MM = Missing Value Source: NWS Daily Summary

Daily Weather History Graph

Daily Weather History Graph

Search for Another Location

Airport or City:

Trip Planner

Search our weather history database for the weather conditions in past years. The results will help you decide how hot, cold, wet, or windy it might be!

Date:

Astronomy

Oct. 07, 2013 Rise Set
Actual Time 7:22 AM EDT 6:57 PM EDT
Civil Twilight 6:57 AM EDT 7:23 PM EDT
Nautical Twilight 6:27 AM EDT 7:52 PM EDT
Astronomical Twilight 5:58 AM EDT 8:22 PM EDT
Moon 10:04 AM EDT (10/7) 8:48 PM EDT (10/7)
Length of Visible Light 12h 26m
Length of Day
11h 35m
Waxing Crescent, 8% of the Moon is Illuminated
Oct 7
Waxing Crescent
Oct 11
First Quarter
Oct 18
Full
Oct 26
Last Quarter
Nov 3
New

Hourly Weather History & Observations

Time (EDT) Temp. Dew Point Humidity Pressure Visibility Wind Dir Wind Speed Gust Speed Precip Events Conditions
12:15 AM 69.8 °F 64.4 °F 83% 29.95 in 10.0 mi SE 5.8 mph - N/A   Scattered Clouds
12:35 AM 69.8 °F 64.4 °F 83% 29.95 in 10.0 mi SE 4.6 mph - N/A   Scattered Clouds
12:55 AM 69.8 °F 66.2 °F 88% 29.95 in 10.0 mi SE 3.5 mph - N/A   Overcast
1:15 AM 69.8 °F 68.0 °F 94% 29.94 in 10.0 mi SE 3.5 mph - N/A   Overcast
1:35 AM 69.8 °F 68.0 °F 94% 29.93 in 10.0 mi Calm Calm - N/A   Overcast
1:55 AM 69.8 °F 68.0 °F 94% 29.93 in 10.0 mi ESE 4.6 mph - N/A   Overcast
2:15 AM 69.8 °F 68.0 °F 94% 29.92 in 10.0 mi SE 3.5 mph - N/A   Overcast
2:35 AM 71.6 °F 68.0 °F 88% 29.92 in 10.0 mi SE 5.8 mph - N/A   Overcast
2:55 AM 71.6 °F 68.0 °F 88% 29.91 in 10.0 mi SSE 4.6 mph - N/A   Overcast
3:15 AM 71.6 °F 68.0 °F 88% 29.90 in 10.0 mi SSE 5.8 mph - N/A   Overcast
3:35 AM 71.6 °F 68.0 °F 88% 29.89 in 10.0 mi SSE 4.6 mph - N/A   Overcast
3:55 AM 71.6 °F 68.0 °F 88% 29.89 in 10.0 mi SSE 5.8 mph - N/A   Overcast
4:15 AM 71.6 °F 68.0 °F 88% 29.89 in 10.0 mi South 4.6 mph - N/A   Overcast
4:35 AM 71.6 °F 68.0 °F 88% 29.89 in 10.0 mi SSE 4.6 mph - N/A   Overcast
4:55 AM 71.6 °F 69.8 °F 94% 29.89 in 5.0 mi SSE 4.6 mph - 0.01 in Rain Rain
5:15 AM 71.6 °F 69.8 °F 94% 29.88 in 7.0 mi SSE 4.6 mph - N/A Rain , Thunderstorm Rain
5:35 AM - - N/A% 29.88 in - SE 5.8 mph - N/A   Unknown
5:55 AM 71.6 °F 69.8 °F 94% 29.87 in 10.0 mi SE 6.9 mph - N/A Thunderstorm Overcast
6:15 AM 71.6 °F 69.8 °F 94% 29.87 in 10.0 mi SSE 5.8 mph - N/A Thunderstorm Overcast
6:35 AM 71.6 °F 69.8 °F 94% 29.88 in 10.0 mi South 6.9 mph - N/A Thunderstorm Overcast
6:52 AM 71.6 °F 69.8 °F 94% 29.89 in 7.0 mi South 5.8 mph - N/A   Overcast
6:55 AM 71.6 °F 69.8 °F 94% 29.89 in 10.0 mi South 4.6 mph - N/A Rain , Thunderstorm Light Thunderstorms and Rain
7:15 AM 71.6 °F 69.8 °F 94% 29.88 in 10.0 mi South 6.9 mph - 0.01 in   Overcast
7:35 AM 71.6 °F 69.8 °F 94% 29.89 in 10.0 mi South 4.6 mph - 0.01 in   Overcast
7:55 AM 73.4 °F 69.8 °F 88% 29.90 in 7.0 mi South 6.9 mph - N/A Rain Light Rain
8:21 AM 73.4 °F 69.8 °F 88% 29.90 in 3.0 mi SSW 8.1 mph - N/A Rain Rain
8:55 AM 69.8 °F 66.2 °F 88% 29.92 in 3.0 mi WSW 10.4 mph 19.6 mph N/A Rain Rain
9:55 AM 69.8 °F 68.0 °F 94% 29.93 in 10.0 mi Calm Calm - N/A   Overcast
10:55 AM 71.6 °F 69.8 °F 94% 29.92 in 10.0 mi Calm Calm - N/A   Mostly Cloudy
11:55 AM 73.4 °F 68.0 °F 83% 29.92 in 10.0 mi WSW 5.8 mph - N/A   Mostly Cloudy
12:55 PM 75.2 °F 68.0 °F 78% 29.92 in 10.0 mi SW 6.9 mph - N/A   Overcast
1:55 PM 75.2 °F 69.8 °F 83% 29.91 in 10.0 mi Calm Calm - N/A   Overcast
2:55 PM 77.0 °F 66.2 °F 69% 29.90 in 10.0 mi Calm Calm - N/A   Overcast
3:55 PM 77.0 °F 66.2 °F 69% 29.90 in 10.0 mi NNW 8.1 mph - N/A   Overcast
4:55 PM 73.4 °F 64.4 °F 73% 29.91 in 10.0 mi North 11.5 mph - N/A   Mostly Cloudy
5:55 PM 71.6 °F 64.4 °F 78% 29.92 in 10.0 mi North 8.1 mph - N/A   Mostly Cloudy
6:55 PM 69.8 °F 60.8 °F 73% 29.95 in 10.0 mi North 8.1 mph - N/A   Mostly Cloudy
7:55 PM 66.2 °F 55.4 °F 68% 29.97 in 10.0 mi NNE 4.6 mph - N/A   Clear
8:55 PM 66.2 °F 57.2 °F 73% 29.99 in 10.0 mi North 8.1 mph - N/A   Clear
9:15 PM 66.2 °F 55.4 °F 68% 30.01 in 10.0 mi North 6.9 mph - N/A   Overcast
9:35 PM 66.2 °F 53.6 °F 64% 30.01 in 10.0 mi North 9.2 mph - N/A   Overcast
9:55 PM 64.4 °F 53.6 °F 68% 30.02 in 10.0 mi North 9.2 mph - N/A   Overcast
10:15 PM 64.4 °F 53.6 °F 68% 30.03 in 10.0 mi North 6.9 mph - N/A   Overcast
10:35 PM 64.4 °F 51.8 °F 64% 30.03 in 10.0 mi North 11.5 mph - N/A   Overcast
10:55 PM 64.4 °F 51.8 °F 64% 30.05 in 10.0 mi North 8.1 mph - N/A   Overcast
11:15 PM 64.4 °F 51.8 °F 64% 30.05 in 10.0 mi North 6.9 mph 16.1 mph N/A   Overcast
11:35 PM 64.4 °F 50.0 °F 59% 30.05 in 10.0 mi North 9.2 mph - N/A   Overcast
11:55 PM 64.4 °F 50.0 °F 59% 30.06 in 10.0 mi North 6.9 mph - N/A   Overcast